User: anonymous   Login
Location: Bougoudala
(13.2282°N, 4.9477°W)
Time: 00:59:08
(UTC+00:00)
Language:

Kiku-3 - Orbit

View from above orbital plane
View from above orbital plane
View from above satellite
View from above satellite

Ground track
Ground track

The orbit data is extracted from the following two-line orbital elements,

1 12295U 81012A   20089.94599236 +.00001669 +00000-0 +28845-3 0  9999
2 12295 028.4194 187.4998 5013454 285.4812 026.2730 05.58921496510192
Epoch (UTC): 29 March 2020 22:42:13
Eccentricity: 0.5013454
inclination: 28.4194°
perigee height: 310 km
apogee height: 13758 km
right ascension of ascending node: 187.4998°
argument of perigee: 285.4812°
revolutions per day: 5.58921496
mean anomaly at epoch: 26.2730°
orbit number at epoch: 51019

The dashed part of the orbit path shows where the satellite is in the earth's shadow,  

DLR